SCP
-0 0 0 0 0 0 0 -0 0 0 0 0 0 0 0 0 0 0 -0 0 0 0 0 0 0 0 0 0 0 0 0 0 0 0 0 0 0 0 0 0 0 0 0 0 0 0 0 0 0
0 0 0 0 0 0 0 0 0 0 0 0 0 0 0 0 0 -0 -0 -0 0 0 0 0 -0 0 0 0 0 0 0 0 0 0 0 0 0 0 0 0 0 0 0 0 0 0 0 0 0
0 0 0 -0 0 0 0 0 0 -0 -0 0 0 0 0 -0 -0 -0 -0 0 0 -0 -0 -0 0 0 0 0 0 0 0 0 0 0 0 0 0 0 0 0 0 0 0 0 0 0 0 0 0
0 0 0 0 0 0 0 -0 -0 0 0 0 0 0 -0 -0 -0 -0 -0 0 0 -0 -0 -0 0 0 0 0 0 0 0 0 0 0 0 0 0 0 0 0 0 0 0 0 0 0 0 0 0
-0 0 -0 0 -0 -0 -0 -0 0 0 0 0 0 -0 -0 -0 -0 0 0 0 0 0 0 0 0 0 0 0 0 0 0 0 0 0 0 0 0 0 0 0 0 0 0 0 0 0 0 0 0
-0 0 -0 0 0 0 -0 0 0 0 0 0 0 0 0 0 -0 0 0 0 0 0 0 0 0 0 0 0 0 0 0 0 0 0 0 0 0 0 0 0 0 0 0 0 0 0 0 0 0
0 0 0 0 0 0 0 0 0 0 0 0 -0 0 -0 0 0 0 0 0 0 0 0 0 0 0 0 0 0 0 0 0 0 0 0 0 0 0 0 0 0 0 0 0 0 0 0 0 0
0 0 0 0 0 0 0 0 0 0 0 0 0 0 0 -0 0 0 0 0 0 0 0 0 0 0 0 0 0 0 0 0 0 0 0 0 0 0 0 0 0 0 0 0 0 0 0 1 0
0 0 0 0 0 0 0 0 0 0 0 -0 -0 0 0 0 0 0 0 0 0 0 0 -0 0 0 0 0 0 0 0 0 0 0 0 0 0 0 0 -0 -0 0 0 0 0 1 1 0 0
-0 0 0 0 0 0 0 0 0 0 0 0 0 0 0 0 0 0 0 0 0 0 -0 0 0 0 0 0 0 0 0 0 0 0 0 0 0 0 0 0 0 0 0 0 0 0 0 0 0
-0 0 0 -0 0 0 0 0 0 0 0 0 0 0 0 0 0 0 0 0 0 0 0 0 0 0 0 0 0 0 0 0 0 0 0 0 0 0 0 0 0 0 0 0 0 0 0 0 0
-0 -0 -0 0 0 0 0 0 -0 -0 -0 0 -0 0 0 0 0 0 0 0 0 0 0 0 0 0 0 0 0 0 0 0 0 0 0 0 0 0 0 0 0 0 0 0 0 0 0 0 0
-0 0 0 -0 -0 -0 -0 -0 0 -0 -0 -0 0 -0 0 0 0 0 0 0 0 0 0 0 0 0 0 0 0 0 0 0 0 0 0 0 0 0 0 0 0 0 0 0 0 0 0 0 0
0 0 0 0 0 0 0 0 0 -0 0 0 -0 -0 0 0 0 0 0 0 0 0 -0 0 0 0 0 0 0 0 0 0 0 0 0 0 0 -0 -0 -0 0 0 0 0 0 0 0 0 0
0 0 0 0 0 0 0 0 0 0 -0 0 0 0 0 0 0 0 0 0 -0 -0 -0 -0 0 0 0 0 0 0 0 0 0 0 0 0 0 0 0 0 0 0 0 0 0 0 0 0 0
0 0 0 0 0 0 0 0 -0 0 0 -0 0 0 0 0 0 0 0 -0 -0 -0 -0 0 0 0 0 0 0 0 0 0 0 0 0 0 0 0 0 0 0 0 0 0 0 0 0 0 0
-0 0 0 0 0 0 0 0 0 0 -0 0 0 0 0 0 0 0 0 0 0 -0 -0 0 0 0 0 0 0 0 0 0 0 0 0 0 0 0 0 0 0 0 0 0 0 0 0 0 0
0 0 0 0 0 0 0 0 -0 0 -0 0 0 0 0 0 0 0 0 0 0 0 -0 -0 -0 -0 0 0 0 0 0 0 0 0 0 0 0 0 0 0 0 0 0 0 0 0 0 0 0
0 0 0 0 0 0 0 0 0 -0 -0 0 0 0 0 0 0 0 0 0 0 0 0 -0 -0 -0 -0 0 0 0 0 0 0 0 0 0 0 0 0 0 0 0 0 0 0 0 0 0 0
0 0 0 0 0 0 0 0 0 0 0 0 0 0 0 0 0 0 0 0 0 0 0 -0 -0 -0 0 0 0 0 0 0 0 0 0 0 0 0 0 0 0 0 0 0 0 0 0 0 0
0 0 0 0 0 0 0 0 0 0 0 0 -0 -0 0 0 0 0 0 0 0 0 0 0 0 0 0 0 0 0 0 0 0 0 0 0 0 0 0 0 0 0 0 0 0 0 0 0 0
-0 0 0 0 0 0 0 0 0 0 0 -0 -0 -0 0 0 0 0 0 0 0 0 0 0 0 0 0 0 0 0 0 0 0 0 0 0 0 0 0 0 0 0 0 0 0 0 0 0 0
0 0 0 0 0 0 0 0 0 0 0 0 -0 -0 0 0 0 0 0 0 0 0 0 0 0 0 0 0 0 0 0 0 0 0 0 0 0 0 0 0 0 0 0 0 0 0 0 0 0
0 0 0 0 0 0 0 0 0 0 0 0 0 0 0 0 0 0 0 0 0 0 0 0 0 0 0 0 0 0 0 0 0 0 0 0 0 0 0 0 0 0 0 0 0 0 0 0 0
0 0 0 0 0 0 0 0 0 0 0 0 0 0 0 0 0 0 0 0 0 0 0 0 0 0 0 0 0 0 0 0 0 0 0 0 0 0 0 0 0 0 0 0 0 0 0 0 0
0 0 0 0 0 0 0 0 -0 0 0 0 0 0 0 0 0 0 0 0 0 0 0 0 0 0 0 0 0 0 0 0 0 0 0 0 0 0 0 0 0 0 0 0 0 0 0 0 0
0 0 0 0 0 0 0 0 0 0 0 0 0 0 0 0 0 0 0 0 0 0 0 0 0 0 0 0 0 0 0 0 0 0 0 0 0 0 0 0 0 0 0 0 0 0 0 0 0
0 0 0 0 0 0 0 0 0 0 0 0 0 0 0 0 0 0 0 0 0 0 0 0 0 0 0 0 0 0 0 0 0 0 0 0 0 0 0 0 0 0 0 0 0 0 0 0 0
0 0 0 0 0 0 0 0 0 0 0 0 0 0 0 0 0 0 0 0 0 0 0 0 0 0 0 0 0 0 0 0 0 0 0 0 0 0 0 0 0 0 0 0 0 0 0 0 0
0 0 0 0 0 0 0 0 0 0 0 0 0 0 0 0 0 0 0 0 0 0 0 0 0 0 0 0 0 0 0 0 0 0 0 0 0 0 0 0 0 0 0 0 0 0 0 0 0
Wind_Speed_500mb
12 17 16 9 7 10 9 11 1 10 10 10 23 13 8 15 7 7 29 18 28 22 16 14 10 6 4 2 2 5 7 9 11 12 14 15 14 12 11 10 8 6 4 4 3 4 6 10 14
14 19 10 8 10 10 10 13 19 14 26 53 46 43 29 8 16 28 33 27 26 17 14 10 7 5 5 7 10 14 16 17 18 18 20 21 22 23 21 19 17 15 13 10 8 5 2 2 5
27 23 7 8 6 7 3 8 6 22 17 12 11 19 11 8 24 28 29 26 25 17 14 10 8 8 12 14 15 17 19 20 25 27 28 28 29 28 29 26 24 24 22 20 17 15 11 7 3
9 6 11 10 11 5 4 5 9 30 35 32 31 12 14 11 11 26 24 24 20 16 11 7 5 6 8 13 16 18 23 24 27 34 35 32 32 34 33 32 31 30 29 28 26 23 20 16 12
6 9 9 5 10 8 9 5 19 17 20 32 17 10 12 26 20 24 19 25 21 14 9 5 6 8 11 14 16 18 24 27 31 39 37 35 40 36 33 33 33 35 35 36 34 32 30 26 20
6 6 8 2 5 4 10 5 30 30 37 33 27 21 9 21 23 16 16 19 17 7 5 8 8 10 18 18 17 16 21 27 34 34 35 37 38 35 34 33 33 33 36 35 36 36 38 36 30
13 7 12 7 3 8 5 2 23 41 29 12 18 10 13 22 18 12 12 15 12 12 10 16 15 12 17 19 18 15 19 23 27 29 32 33 32 36 31 30 31 31 33 33 42 38 40 41 40
13 9 11 6 7 7 0 5 22 26 12 32 24 10 8 33 28 24 24 21 23 18 18 21 18 13 18 15 16 15 17 20 25 31 32 33 33 32 31 32 34 37 44 44 44 40 41 42 46
15 10 7 14 12 9 10 9 15 9 25 16 11 32 42 34 28 22 25 24 21 24 27 18 17 15 11 7 15 16 18 25 28 32 34 33 33 36 37 43 43 43 49 47 53 50 44 55 52
9 10 23 19 12 6 29 11 15 11 24 25 49 38 22 14 28 34 30 28 22 20 23 26 24 21 15 11 15 12 20 27 31 32 40 32 30 32 31 38 47 49 46 45 45 47 51 35 54
8 10 15 11 16 30 21 35 26 27 14 18 57 32 16 18 20 24 27 24 24 23 22 25 23 22 20 20 20 19 23 22 26 33 34 40 30 29 32 38 35 36 37 38 33 39 34 42 44
10 14 16 24 52 31 24 57 78 67 28 19 40 16 16 16 23 23 23 21 24 28 27 26 30 32 27 25 24 20 17 17 22 28 28 26 26 27 32 40 43 45 43 37 35 29 29 34 31
17 12 38 75 79 69 89 76 83 92 43 12 15 9 23 23 23 21 20 19 15 18 33 39 36 34 32 30 30 30 25 16 15 17 23 28 32 37 41 43 44 41 41 37 35 30 21 38 38
18 38 42 58 55 56 72 50 36 57 44 9 22 32 30 23 22 24 21 24 25 28 38 39 36 31 29 27 23 19 16 12 12 17 23 30 38 47 51 50 44 38 32 25 23 27 25 31 35
53 23 20 24 20 23 16 20 19 32 32 19 20 37 34 27 24 27 23 27 35 43 45 46 45 38 32 27 16 13 10 15 15 20 25 31 38 40 41 44 47 36 26 24 19 21 21 25 25
12 10 10 10 9 14 5 10 16 28 42 28 25 37 36 28 20 23 23 27 38 41 46 46 43 47 32 20 10 6 5 9 14 20 24 30 33 42 45 44 38 34 27 24 27 30 27 25 24
13 4 13 5 23 5 4 4 34 28 31 27 26 33 35 29 19 17 16 23 28 37 44 48 55 59 30 9 7 4 11 17 21 19 17 26 29 37 43 37 34 29 29 26 23 22 26 27 28
5 10 8 7 6 7 11 6 18 29 25 20 27 33 35 30 19 16 12 15 22 35 42 51 60 60 37 12 7 10 14 15 11 10 13 21 30 38 37 35 35 33 33 31 27 23 20 22 26
15 11 14 4 4 14 15 9 5 12 13 14 28 32 37 31 25 17 8 12 22 31 37 44 51 52 41 23 17 14 15 16 14 11 15 22 30 32 30 32 34 32 31 32 31 27 22 19 23
19 29 3 2 10 13 8 8 3 12 13 4 21 31 44 34 29 17 6 10 20 23 29 36 46 47 45 30 18 15 13 11 11 15 17 22 26 31 32 33 34 34 34 32 29 29 27 21 24
7 18 17 12 15 16 14 4 8 9 17 9 13 19 31 37 30 17 8 5 11 15 24 30 41 45 44 28 17 12 15 15 11 16 20 24 27 32 35 34 33 33 32 34 31 26 27 25 19
8 12 14 26 8 6 6 6 9 7 14 20 28 27 29 34 23 16 9 2 4 9 18 25 36 37 40 26 22 20 22 21 21 21 22 26 30 33 37 37 32 31 34 29 29 28 26 26 25
8 22 14 8 10 10 4 5 3 3 9 14 23 36 27 23 23 16 13 3 5 5 13 20 30 31 34 25 21 22 21 22 21 22 25 31 36 37 42 38 34 33 34 31 27 25 23 25 25
21 15 16 8 6 7 10 5 8 8 13 9 21 32 29 32 27 18 12 10 7 2 7 17 25 25 28 27 15 19 24 23 24 27 29 35 41 42 43 39 37 32 32 32 29 26 25 24 24
15 12 6 5 8 7 9 3 12 11 11 14 30 35 42 37 34 28 17 14 13 6 4 14 19 20 25 25 12 18 21 24 31 33 33 37 43 46 43 38 36 34 33 31 28 26 24 23 22
9 13 10 6 5 5 8 4 7 10 20 15 29 47 46 46 37 32 21 18 12 5 4 12 17 16 23 28 16 18 23 23 28 33 32 37 42 40 41 37 34 30 32 34 31 28 24 22 20
7 7 8 14 5 6 5 10 5 12 9 25 45 52 52 44 40 33 26 17 12 2 3 12 17 13 20 30 20 21 24 24 28 33 29 37 43 40 39 37 35 32 34 37 36 31 25 23 19
14 9 7 7 8 3 6 8 9 10 14 15 29 45 51 51 42 35 24 16 10 1 7 12 12 9 13 26 27 29 25 26 27 33 31 38 39 41 41 39 37 35 35 38 38 33 28 26 23
8 3 12 10 7 8 2 11 11 20 21 22 44 60 60 54 46 36 23 16 5 2 3 12 10 5 8 17 24 30 29 25 25 31 32 36 37 39 41 39 38 39 39 41 46 42 31 30 32
5 8 10 10 5 4 8 11 5 20 38 49 42 58 62 55 43 29 24 16 5 2 3 11 13 3 5 10 17 25 30 28 23 28 30 33 34 37 37 34 36 37 39 41 45 44 41 35 33
Wind_Direction_500mb
110 111 126 119 46 61 9 356 354 62 48 87 100 118 119 68 146 197 154 151 155 140 125 137 145 144 159 176 311 332 329 322 313 303 297 289 281 273 264 256 249 235 203 173 143 99 85 74 43
92 95 107 73 70 48 314 331 75 78 121 100 88 90 68 52 86 133 149 142 141 106 101 105 98 72 34 8 358 351 344 333 325 314 302 291 284 279 275 270 266 264 261 256 256 259 263 106 61
63 42 43 83 88 115 253 358 151 119 127 111 100 70 72 77 107 133 131 132 142 121 125 102 63 34 9 353 353 353 339 336 330 319 308 297 289 281 276 271 269 269 270 272 273 276 278 288 302
49 59 55 103 122 188 152 304 160 105 97 101 105 55 74 116 141 147 136 133 131 129 113 86 49 6 338 339 339 337 338 333 330 325 312 300 294 286 277 273 269 268 269 270 271 271 275 277 278
28 54 60 57 338 342 9 209 145 108 108 104 106 71 47 88 128 138 122 135 141 133 106 57 9 327 322 325 327 320 337 332 328 327 319 307 303 292 288 284 279 274 273 275 277 277 274 271 271
69 94 42 149 267 301 316 185 124 96 112 103 88 82 51 119 136 150 157 143 135 87 25 360 329 304 324 323 312 321 330 331 335 334 330 324 317 305 295 291 289 287 287 285 280 276 277 276 272
140 99 177 208 207 338 266 202 128 126 134 97 112 83 117 124 121 135 133 127 118 72 349 341 335 312 317 302 311 310 320 332 339 338 333 327 324 315 304 294 292 287 287 280 276 274 275 269 272
178 98 121 259 176 236 117 71 111 107 69 119 112 118 123 97 100 110 128 117 111 47 42 19 5 327 323 307 314 305 317 322 330 332 333 331 329 323 315 308 304 296 298 286 280 280 265 257 250
188 77 196 172 156 217 131 79 61 57 104 77 74 119 125 95 96 112 126 114 80 57 48 27 23 14 10 333 322 321 314 313 321 332 328 324 324 322 303 293 294 299 301 294 281 275 273 277 261
140 136 198 185 173 145 81 57 97 64 70 76 105 107 112 85 97 102 97 99 87 62 31 25 14 15 4 325 320 314 310 313 320 316 316 318 313 318 306 308 309 309 311 300 288 275 271 278 259
153 173 184 154 118 65 81 52 58 98 56 102 109 127 160 89 84 78 71 63 62 46 33 20 16 1 347 341 340 343 342 337 337 335 312 323 318 326 313 318 329 336 336 326 296 279 278 257 248
101 42 62 76 67 66 55 66 53 37 33 108 123 127 120 103 79 69 68 55 43 32 20 1 352 342 339 336 338 359 2 3 346 340 331 354 343 346 343 335 335 332 334 330 314 291 269 232 246
42 43 73 85 82 84 84 79 58 34 7 37 183 122 126 116 94 75 60 67 64 26 5 355 350 346 341 335 335 343 346 357 10 7 338 336 345 350 343 336 328 327 318 318 320 304 269 235 259
98 99 90 94 96 101 98 83 97 38 21 196 164 150 132 113 96 75 61 55 39 23 11 2 356 352 344 346 347 10 354 19 9 4 358 349 345 340 338 337 333 322 317 319 313 301 296 268 267
119 104 86 115 134 140 80 34 120 105 161 178 165 154 125 124 97 75 64 54 35 26 18 17 19 13 5 6 8 63 56 350 354 7 357 351 347 348 352 359 359 360 336 316 318 314 302 284 281
119 78 109 10 92 337 96 169 206 159 193 241 166 135 134 121 93 79 66 48 34 26 27 30 21 14 14 30 67 86 17 11 9 7 11 4 9 7 358 353 358 6 357 332 312 302 308 306 295
358 139 106 78 2 165 103 149 207 193 205 237 143 143 140 131 125 109 87 42 29 29 31 25 20 19 24 50 91 21 4 3 2 8 17 12 2 1 358 6 8 3 357 349 342 323 311 305 301
139 111 57 94 312 48 79 107 176 182 230 227 145 146 158 149 150 139 86 41 35 36 34 24 17 22 38 46 66 40 12 15 34 53 22 3 358 353 2 7 7 2 357 355 354 351 345 328 312
116 110 119 173 196 69 75 82 236 248 232 252 170 162 172 163 171 156 108 54 32 38 32 25 22 27 29 42 41 34 43 45 47 34 6 350 351 357 3 357 353 354 350 346 348 353 354 352 354
102 109 53 12 87 88 103 94 311 269 272 218 168 186 180 170 179 163 125 39 23 33 39 35 26 25 25 30 50 47 38 39 30 4 354 359 8 13 6 359 353 348 344 339 335 343 354 1 1
173 149 186 148 108 53 115 357 287 294 293 201 166 168 184 186 177 177 152 16 25 39 43 36 26 23 24 38 51 57 64 61 52 36 20 19 16 9 1 1 359 359 356 355 353 343 349 353 358
135 153 138 131 94 179 195 282 210 229 271 250 238 213 181 188 190 183 189 333 53 50 47 30 23 28 28 41 56 55 46 47 43 38 29 21 15 8 5 3 4 8 8 8 8 3 354 345 340
132 111 129 98 85 117 347 113 197 97 251 233 222 197 189 189 189 196 213 146 144 60 37 19 22 33 31 40 56 45 46 54 51 40 31 24 18 14 16 20 21 18 15 13 10 4 358 350 344
125 83 50 64 81 47 309 89 306 215 203 209 207 214 207 189 188 197 182 193 175 270 13 11 24 34 32 32 49 44 43 44 36 33 27 21 20 18 19 18 17 18 14 11 6 360 346 337 335
80 71 31 1 12 215 312 60 227 249 219 186 185 193 182 185 189 195 194 190 197 233 347 7 28 33 30 21 54 40 31 28 28 29 25 20 18 15 17 13 12 11 10 10 7 2 356 354 349
172 145 146 233 186 260 331 293 278 231 183 166 184 176 181 182 185 194 197 188 194 233 336 17 24 33 36 36 36 36 28 23 21 23 25 21 17 16 16 15 16 13 11 10 6 2 4 10 10
172 37 164 108 63 80 280 297 336 74 126 136 164 171 179 181 188 193 184 190 194 242 8 28 20 36 36 33 42 34 24 25 23 18 26 23 22 28 23 22 18 21 12 11 14 20 22 16 11
111 155 40 24 126 224 284 273 235 185 173 173 159 179 183 184 190 188 187 190 182 139 30 16 14 43 41 35 43 35 27 25 23 23 29 26 26 29 30 28 27 22 19 18 19 25 31 25 18
37 49 51 108 111 146 219 260 221 195 187 181 178 188 189 194 191 187 191 187 192 186 16 7 4 51 50 35 36 31 25 25 21 23 28 26 24 25 26 29 31 29 32 36 31 31 33 30 31
137 162 130 116 216 127 143 276 293 229 193 181 183 198 197 197 189 192 198 192 202 264 316 4 360 6 35 26 26 24 26 22 21 22 26 26 25 26 29 35 35 39 41 36 35 36 36 35 31
Wind_Speed_850mb
12 17 16 9 7 10 9 11 1 10 10 10 23 13 8 15 7 7 29 18 28 22 16 14 10 6 4 2 2 5 7 9 11 12 14 15 14 12 11 10 8 6 4 4 3 4 6 10 14
14 19 10 8 10 10 10 13 19 14 26 53 46 43 29 8 16 28 33 27 26 17 14 10 7 5 5 7 10 14 16 17 18 18 20 21 22 23 21 19 17 15 13 10 8 5 2 2 5
27 23 7 8 6 7 3 8 6 22 17 12 11 19 11 8 24 28 29 26 25 17 14 10 8 8 12 14 15 17 19 20 25 27 28 28 29 28 29 26 24 24 22 20 17 15 11 7 3
9 6 11 10 11 5 4 5 9 30 35 32 31 12 14 11 11 26 24 24 20 16 11 7 5 6 8 13 16 18 23 24 27 34 35 32 32 34 33 32 31 30 29 28 26 23 20 16 12
6 9 9 5 10 8 9 5 19 17 20 32 17 10 12 26 20 24 19 25 21 14 9 5 6 8 11 14 16 18 24 27 31 39 37 35 40 36 33 33 33 35 35 36 34 32 30 26 20
6 6 8 2 5 4 10 5 30 30 37 33 27 21 9 21 23 16 16 19 17 7 5 8 8 10 18 18 17 16 21 27 34 34 35 37 38 35 34 33 33 33 36 35 36 36 38 36 30
13 7 12 7 3 8 5 2 23 41 29 12 18 10 13 22 18 12 12 15 12 12 10 16 15 12 17 19 18 15 19 23 27 29 32 33 32 36 31 30 31 31 33 33 42 38 40 41 40
13 9 11 6 7 7 0 5 22 26 12 32 24 10 8 33 28 24 24 21 23 18 18 21 18 13 18 15 16 15 17 20 25 31 32 33 33 32 31 32 34 37 44 44 44 40 41 42 46
15 10 7 14 12 9 10 9 15 9 25 16 11 32 42 34 28 22 25 24 21 24 27 18 17 15 11 7 15 16 18 25 28 32 34 33 33 36 37 43 43 43 49 47 53 50 44 55 52
9 10 23 19 12 6 29 11 15 11 24 25 49 38 22 14 28 34 30 28 22 20 23 26 24 21 15 11 15 12 20 27 31 32 40 32 30 32 31 38 47 49 46 45 45 47 51 35 54
8 10 15 11 16 30 21 35 26 27 14 18 57 32 16 18 20 24 27 24 24 23 22 25 23 22 20 20 20 19 23 22 26 33 34 40 30 29 32 38 35 36 37 38 33 39 34 42 44
10 14 16 24 52 31 24 57 78 67 28 19 40 16 16 16 23 23 23 21 24 28 27 26 30 32 27 25 24 20 17 17 22 28 28 26 26 27 32 40 43 45 43 37 35 29 29 34 31
17 12 38 75 79 69 89 76 83 92 43 12 15 9 23 23 23 21 20 19 15 18 33 39 36 34 32 30 30 30 25 16 15 17 23 28 32 37 41 43 44 41 41 37 35 30 21 38 38
18 38 42 58 55 56 72 50 36 57 44 9 22 32 30 23 22 24 21 24 25 28 38 39 36 31 29 27 23 19 16 12 12 17 23 30 38 47 51 50 44 38 32 25 23 27 25 31 35
53 23 20 24 20 23 16 20 19 32 32 19 20 37 34 27 24 27 23 27 35 43 45 46 45 38 32 27 16 13 10 15 15 20 25 31 38 40 41 44 47 36 26 24 19 21 21 25 25
12 10 10 10 9 14 5 10 16 28 42 28 25 37 36 28 20 23 23 27 38 41 46 46 43 47 32 20 10 6 5 9 14 20 24 30 33 42 45 44 38 34 27 24 27 30 27 25 24
13 4 13 5 23 5 4 4 34 28 31 27 26 33 35 29 19 17 16 23 28 37 44 48 55 59 30 9 7 4 11 17 21 19 17 26 29 37 43 37 34 29 29 26 23 22 26 27 28
5 10 8 7 6 7 11 6 18 29 25 20 27 33 35 30 19 16 12 15 22 35 42 51 60 60 37 12 7 10 14 15 11 10 13 21 30 38 37 35 35 33 33 31 27 23 20 22 26
15 11 14 4 4 14 15 9 5 12 13 14 28 32 37 31 25 17 8 12 22 31 37 44 51 52 41 23 17 14 15 16 14 11 15 22 30 32 30 32 34 32 31 32 31 27 22 19 23
19 29 3 2 10 13 8 8 3 12 13 4 21 31 44 34 29 17 6 10 20 23 29 36 46 47 45 30 18 15 13 11 11 15 17 22 26 31 32 33 34 34 34 32 29 29 27 21 24
7 18 17 12 15 16 14 4 8 9 17 9 13 19 31 37 30 17 8 5 11 15 24 30 41 45 44 28 17 12 15 15 11 16 20 24 27 32 35 34 33 33 32 34 31 26 27 25 19
8 12 14 26 8 6 6 6 9 7 14 20 28 27 29 34 23 16 9 2 4 9 18 25 36 37 40 26 22 20 22 21 21 21 22 26 30 33 37 37 32 31 34 29 29 28 26 26 25
8 22 14 8 10 10 4 5 3 3 9 14 23 36 27 23 23 16 13 3 5 5 13 20 30 31 34 25 21 22 21 22 21 22 25 31 36 37 42 38 34 33 34 31 27 25 23 25 25
21 15 16 8 6 7 10 5 8 8 13 9 21 32 29 32 27 18 12 10 7 2 7 17 25 25 28 27 15 19 24 23 24 27 29 35 41 42 43 39 37 32 32 32 29 26 25 24 24
15 12 6 5 8 7 9 3 12 11 11 14 30 35 42 37 34 28 17 14 13 6 4 14 19 20 25 25 12 18 21 24 31 33 33 37 43 46 43 38 36 34 33 31 28 26 24 23 22
9 13 10 6 5 5 8 4 7 10 20 15 29 47 46 46 37 32 21 18 12 5 4 12 17 16 23 28 16 18 23 23 28 33 32 37 42 40 41 37 34 30 32 34 31 28 24 22 20
7 7 8 14 5 6 5 10 5 12 9 25 45 52 52 44 40 33 26 17 12 2 3 12 17 13 20 30 20 21 24 24 28 33 29 37 43 40 39 37 35 32 34 37 36 31 25 23 19
14 9 7 7 8 3 6 8 9 10 14 15 29 45 51 51 42 35 24 16 10 1 7 12 12 9 13 26 27 29 25 26 27 33 31 38 39 41 41 39 37 35 35 38 38 33 28 26 23
8 3 12 10 7 8 2 11 11 20 21 22 44 60 60 54 46 36 23 16 5 2 3 12 10 5 8 17 24 30 29 25 25 31 32 36 37 39 41 39 38 39 39 41 46 42 31 30 32
5 8 10 10 5 4 8 11 5 20 38 49 42 58 62 55 43 29 24 16 5 2 3 11 13 3 5 10 17 25 30 28 23 28 30 33 34 37 37 34 36 37 39 41 45 44 41 35 33
Wind_Direction_850mb
110 111 126 119 46 61 9 356 354 62 48 87 100 118 119 68 146 197 154 151 155 140 125 137 145 144 159 176 311 332 329 322 313 303 297 289 281 273 264 256 249 235 203 173 143 99 85 74 43
92 95 107 73 70 48 314 331 75 78 121 100 88 90 68 52 86 133 149 142 141 106 101 105 98 72 34 8 358 351 344 333 325 314 302 291 284 279 275 270 266 264 261 256 256 259 263 106 61
63 42 43 83 88 115 253 358 151 119 127 111 100 70 72 77 107 133 131 132 142 121 125 102 63 34 9 353 353 353 339 336 330 319 308 297 289 281 276 271 269 269 270 272 273 276 278 288 302
49 59 55 103 122 188 152 304 160 105 97 101 105 55 74 116 141 147 136 133 131 129 113 86 49 6 338 339 339 337 338 333 330 325 312 300 294 286 277 273 269 268 269 270 271 271 275 277 278
28 54 60 57 338 342 9 209 145 108 108 104 106 71 47 88 128 138 122 135 141 133 106 57 9 327 322 325 327 320 337 332 328 327 319 307 303 292 288 284 279 274 273 275 277 277 274 271 271
69 94 42 149 267 301 316 185 124 96 112 103 88 82 51 119 136 150 157 143 135 87 25 360 329 304 324 323 312 321 330 331 335 334 330 324 317 305 295 291 289 287 287 285 280 276 277 276 272
140 99 177 208 207 338 266 202 128 126 134 97 112 83 117 124 121 135 133 127 118 72 349 341 335 312 317 302 311 310 320 332 339 338 333 327 324 315 304 294 292 287 287 280 276 274 275 269 272
178 98 121 259 176 236 117 71 111 107 69 119 112 118 123 97 100 110 128 117 111 47 42 19 5 327 323 307 314 305 317 322 330 332 333 331 329 323 315 308 304 296 298 286 280 280 265 257 250
188 77 196 172 156 217 131 79 61 57 104 77 74 119 125 95 96 112 126 114 80 57 48 27 23 14 10 333 322 321 314 313 321 332 328 324 324 322 303 293 294 299 301 294 281 275 273 277 261
140 136 198 185 173 145 81 57 97 64 70 76 105 107 112 85 97 102 97 99 87 62 31 25 14 15 4 325 320 314 310 313 320 316 316 318 313 318 306 308 309 309 311 300 288 275 271 278 259
153 173 184 154 118 65 81 52 58 98 56 102 109 127 160 89 84 78 71 63 62 46 33 20 16 1 347 341 340 343 342 337 337 335 312 323 318 326 313 318 329 336 336 326 296 279 278 257 248
101 42 62 76 67 66 55 66 53 37 33 108 123 127 120 103 79 69 68 55 43 32 20 1 352 342 339 336 338 359 2 3 346 340 331 354 343 346 343 335 335 332 334 330 314 291 269 232 246
42 43 73 85 82 84 84 79 58 34 7 37 183 122 126 116 94 75 60 67 64 26 5 355 350 346 341 335 335 343 346 357 10 7 338 336 345 350 343 336 328 327 318 318 320 304 269 235 259
98 99 90 94 96 101 98 83 97 38 21 196 164 150 132 113 96 75 61 55 39 23 11 2 356 352 344 346 347 10 354 19 9 4 358 349 345 340 338 337 333 322 317 319 313 301 296 268 267
119 104 86 115 134 140 80 34 120 105 161 178 165 154 125 124 97 75 64 54 35 26 18 17 19 13 5 6 8 63 56 350 354 7 357 351 347 348 352 359 359 360 336 316 318 314 302 284 281
119 78 109 10 92 337 96 169 206 159 193 241 166 135 134 121 93 79 66 48 34 26 27 30 21 14 14 30 67 86 17 11 9 7 11 4 9 7 358 353 358 6 357 332 312 302 308 306 295
358 139 106 78 2 165 103 149 207 193 205 237 143 143 140 131 125 109 87 42 29 29 31 25 20 19 24 50 91 21 4 3 2 8 17 12 2 1 358 6 8 3 357 349 342 323 311 305 301
139 111 57 94 312 48 79 107 176 182 230 227 145 146 158 149 150 139 86 41 35 36 34 24 17 22 38 46 66 40 12 15 34 53 22 3 358 353 2 7 7 2 357 355 354 351 345 328 312
116 110 119 173 196 69 75 82 236 248 232 252 170 162 172 163 171 156 108 54 32 38 32 25 22 27 29 42 41 34 43 45 47 34 6 350 351 357 3 357 353 354 350 346 348 353 354 352 354
102 109 53 12 87 88 103 94 311 269 272 218 168 186 180 170 179 163 125 39 23 33 39 35 26 25 25 30 50 47 38 39 30 4 354 359 8 13 6 359 353 348 344 339 335 343 354 1 1
173 149 186 148 108 53 115 357 287 294 293 201 166 168 184 186 177 177 152 16 25 39 43 36 26 23 24 38 51 57 64 61 52 36 20 19 16 9 1 1 359 359 356 355 353 343 349 353 358
135 153 138 131 94 179 195 282 210 229 271 250 238 213 181 188 190 183 189 333 53 50 47 30 23 28 28 41 56 55 46 47 43 38 29 21 15 8 5 3 4 8 8 8 8 3 354 345 340
132 111 129 98 85 117 347 113 197 97 251 233 222 197 189 189 189 196 213 146 144 60 37 19 22 33 31 40 56 45 46 54 51 40 31 24 18 14 16 20 21 18 15 13 10 4 358 350 344
125 83 50 64 81 47 309 89 306 215 203 209 207 214 207 189 188 197 182 193 175 270 13 11 24 34 32 32 49 44 43 44 36 33 27 21 20 18 19 18 17 18 14 11 6 360 346 337 335
80 71 31 1 12 215 312 60 227 249 219 186 185 193 182 185 189 195 194 190 197 233 347 7 28 33 30 21 54 40 31 28 28 29 25 20 18 15 17 13 12 11 10 10 7 2 356 354 349
172 145 146 233 186 260 331 293 278 231 183 166 184 176 181 182 185 194 197 188 194 233 336 17 24 33 36 36 36 36 28 23 21 23 25 21 17 16 16 15 16 13 11 10 6 2 4 10 10
172 37 164 108 63 80 280 297 336 74 126 136 164 171 179 181 188 193 184 190 194 242 8 28 20 36 36 33 42 34 24 25 23 18 26 23 22 28 23 22 18 21 12 11 14 20 22 16 11
111 155 40 24 126 224 284 273 235 185 173 173 159 179 183 184 190 188 187 190 182 139 30 16 14 43 41 35 43 35 27 25 23 23 29 26 26 29 30 28 27 22 19 18 19 25 31 25 18
37 49 51 108 111 146 219 260 221 195 187 181 178 188 189 194 191 187 191 187 192 186 16 7 4 51 50 35 36 31 25 25 21 23 28 26 24 25 26 29 31 29 32 36 31 31 33 30 31
137 162 130 116 216 127 143 276 293 229 193 181 183 198 197 197 189 192 198 192 202 264 316 4 360 6 35 26 26 24 26 22 21 22 26 26 25 26 29 35 35 39 41 36 35 36 36 35 31